Weather reports worldwide

Advertisment
Levens Hall, United Kingdom (99172): temperature & dewpoint: 10.11.2018 10:00:00 - 16.11.2018 10:00:00 (GMT)Levens Hall, United Kingdom (99172): precipitation: 10.11.2018 10:00:00 - 16.11.2018 10:00:00 (GMT)
Date & Time tt [°C] td [°C] rr [mm]
16.11.2018 10:00:00 - - -
16.11.2018 09:00:00 - - -
16.11.2018 08:00:00 - - -
16.11.2018 07:00:00 - - -
16.11.2018 06:00:00 - - -
16.11.2018 05:00:00 - - -
16.11.2018 04:00:00 - - -
16.11.2018 03:00:00 - - -
16.11.2018 02:00:00 - - -
16.11.2018 01:00:00 - - -
16.11.2018 00:00:00 - - -
15.11.2018 23:00:00 - - -
15.11.2018 22:00:00 - - -
15.11.2018 21:00:00 - - -
15.11.2018 20:00:00 - - -
15.11.2018 19:00:00 - - -
15.11.2018 18:00:00 - - -
15.11.2018 17:00:00 - - -
15.11.2018 16:00:00 - - -
15.11.2018 15:00:00 - - -
15.11.2018 14:00:00 - - -
15.11.2018 13:00:00 - - -
15.11.2018 12:00:00 - - -
15.11.2018 11:00:00 - - -
15.11.2018 10:00:00 - - -
15.11.2018 09:00:00 - - -
15.11.2018 08:00:00 - - -
15.11.2018 07:00:00 - - -
15.11.2018 06:00:00 - - -
15.11.2018 05:00:00 - - -
15.11.2018 04:00:00 - - -
15.11.2018 03:00:00 - - -
15.11.2018 02:00:00 7,2 5,9 0,0
15.11.2018 01:00:00 8,3 6,4 0,0
15.11.2018 00:00:00 10,2 6,8 0,2
14.11.2018 23:00:00 10,5 6,9 0,0
14.11.2018 22:00:00 11,6 7,6 0,0
14.11.2018 21:00:00 10,5 7,3 0,0
14.11.2018 20:00:00 10,8 7,6 0,0
14.11.2018 19:00:00 11,8 8,0 0,0
14.11.2018 18:00:00 12,0 8,6 0,0
14.11.2018 17:00:00 12,2 8,8 0,0
14.11.2018 16:00:00 12,2 9,3 0,0
14.11.2018 15:00:00 12,2 9,8 0,0
14.11.2018 14:00:00 12,1 10,4 0,2
14.11.2018 13:00:00 12,5 10,2 0,0
14.11.2018 12:00:00 12,8 10,0 0,0
14.11.2018 11:00:00 12,5 10,0 0,0
14.11.2018 10:00:00 12,4 9,7 0,0
14.11.2018 09:00:00 12,1 9,6 0,2
14.11.2018 08:00:00 11,2 9,5 0,4
14.11.2018 07:00:00 10,9 9,4 0,8
14.11.2018 06:00:00 10,6 9,1 0,2
14.11.2018 05:00:00 9,9 8,9 1,6
14.11.2018 04:00:00 10,2 8,6 0,6
14.11.2018 03:00:00 10,5 8,2 0,2
14.11.2018 02:00:00 10,6 8,3 0,2
14.11.2018 01:00:00 10,7 8,2 0,0
14.11.2018 00:00:00 10,6 7,6 0,0
13.11.2018 23:00:00 10,6 7,4 0,0
13.11.2018 22:00:00 10,7 7,2 0,0
13.11.2018 21:00:00 10,9 7,3 0,0
13.11.2018 20:00:00 10,6 7,2 0,0
13.11.2018 19:00:00 10,3 7,8 0,0
13.11.2018 18:00:00 10,1 8,2 0,0
13.11.2018 17:00:00 10,0 8,6 0,0
13.11.2018 16:00:00 10,6 8,2 0,0
13.11.2018 15:00:00 11,1 7,8 0,0
13.11.2018 14:00:00 11,7 8,3 0,0
13.11.2018 13:00:00 11,6 8,3 0,0
13.11.2018 12:00:00 11,5 7,5 0,0
13.11.2018 11:00:00 11,8 7,7 0,0
13.11.2018 10:00:00 10,8 7,0 0,0
13.11.2018 09:00:00 10,2 6,8 0,0
13.11.2018 08:00:00 9,9 6,6 0,0
13.11.2018 07:00:00 9,9 6,9 0,0
13.11.2018 06:00:00 10,0 7,7 0,0
13.11.2018 05:00:00 9,4 7,3 0,8
13.11.2018 04:00:00 9,8 7,5 0,0
13.11.2018 03:00:00 9,7 7,8 0,4
13.11.2018 02:00:00 9,3 8,4 1,2
13.11.2018 01:00:00 8,1 7,2 2,8
13.11.2018 00:00:00 8,2 7,0 1,2
12.11.2018 23:00:00 8,7 6,3 0,0
12.11.2018 22:00:00 9,3 6,8 0,0
12.11.2018 21:00:00 9,1 7,0 0,2
12.11.2018 20:00:00 9,3 7,2 1,2
12.11.2018 19:00:00 10,0 6,6 0,0
12.11.2018 18:00:00 10,0 7,0 0,0
12.11.2018 17:00:00 9,6 7,5 0,0
12.11.2018 16:00:00 10,4 8,0 0,0
12.11.2018 15:00:00 10,7 8,2 0,6
12.11.2018 14:00:00 12,3 7,8 0,0
12.11.2018 13:00:00 11,8 7,6 0,0
12.11.2018 12:00:00 11,8 7,5 0,0
12.11.2018 11:00:00 11,4 7,8 0,2
12.11.2018 10:00:00 10,6 7,3 0,0
12.11.2018 09:00:00 9,6 7,1 0,0
12.11.2018 08:00:00 8,7 6,7 0,0
12.11.2018 07:00:00 8,7 6,7 0,0
12.11.2018 06:00:00 8,8 6,8 0,0
12.11.2018 05:00:00 9,0 7,1 0,2
12.11.2018 04:00:00 9,1 7,4 0,4
12.11.2018 03:00:00 9,6 6,8 0,0
12.11.2018 02:00:00 9,5 6,7 0,0
12.11.2018 01:00:00 8,7 6,1 0,0
12.11.2018 00:00:00 8,9 6,4 0,0
11.11.2018 23:00:00 9,4 6,7 0,4
11.11.2018 22:00:00 10,1 6,4 0,0
11.11.2018 21:00:00 - - 0,2
11.11.2018 20:00:00 - - 0,0
11.11.2018 19:00:00 - - 0,0
11.11.2018 18:00:00 - - 0,0
11.11.2018 17:00:00 - - 0,0
11.11.2018 16:00:00 - - 0,0
11.11.2018 15:00:00 - - 0,0
11.11.2018 14:00:00 - - 0,2
11.11.2018 13:00:00 - - 0,0
11.11.2018 12:00:00 - - 1,0
11.11.2018 11:00:00 - - 4,2
11.11.2018 10:00:00 - - 0,0
11.11.2018 09:00:00 - - 0,0
11.11.2018 08:00:00 - - 0,0
11.11.2018 07:00:00 - - 0,0
11.11.2018 06:00:00 - - 0,0
11.11.2018 05:00:00 - - 0,0
11.11.2018 04:00:00 - - 0,0
11.11.2018 03:00:00 - - 0,0
11.11.2018 02:00:00 - - 0,0
11.11.2018 01:00:00 - - 0,0
11.11.2018 00:00:00 - - 0,0
10.11.2018 23:00:00 - - 0,0
10.11.2018 22:00:00 - - 0,0
10.11.2018 21:00:00 - - 0,2
10.11.2018 20:00:00 - - 0,0
10.11.2018 19:00:00 - - 0,0
10.11.2018 18:00:00 - - 0,0
10.11.2018 17:00:00 - - 0,0
10.11.2018 16:00:00 - - 0,0
10.11.2018 15:00:00 - - 0,0
10.11.2018 14:00:00 - - 0,0
10.11.2018 13:00:00 - - 0,0
10.11.2018 12:00:00 - - 0,0
10.11.2018 11:00:00 - - 0,0
10.11.2018 10:00:00 - - 0,0

tt = temperature
td = dewpoint
rr = precipitation

Next stations